CW6641 Weather Reports


Display with metric or nautical units.
time (UTC)temp
F
wind
direction
speed
MPH
gust
MPH
rain 1hr
in
rain 24hr
in
rain mn
in
humidity
%
barometer
mb
20260906205519 87 0.0 0.0 0.00 0.00 0.00 54 1013.7
20260906205015 87 0.0 0.0 0.00 0.00 0.00 54 1013.8
20260906204514 87 0.0 0.0 0.00 0.00 0.00 55 1013.6
20260906204009 87 0.0 0.0 0.00 0.00 0.00 58 1013.9
20260906203504 87 0.0 0.0 0.00 0.00 0.00 58 1013.8
20260906203004 87 0.0 0.0 0.00 0.00 0.00 58 1013.8
20260906202500 87 0.0 0.0 0.00 0.00 0.00 56 1014.0
20260906201955 87 0.0 0.0 0.00 0.00 0.00 56 1013.8
20260906201450 87 0.0 0.0 0.00 0.00 0.00 57 1013.8
20260906200944 87 0.0 0.0 0.00 0.00 0.00 57 1014.1
20260906200441 87 0.0 0.0 0.00 0.00 0.00 57 1014.2
20260906195941 87 0.0 0.0 0.00 0.00 0.00 56 1014.1
20260906195437 87 0.0 0.0 0.00 0.00 0.00 57 1014.3
20260906194933 87 0.0 0.0 0.00 0.00 0.00 59 1014.4
20260906194429 87 0.0 0.0 0.00 0.00 0.00 60 1014.5
20260906193924 86 0.0 0.0 0.00 0.00 0.00 60 1014.5
20260906193419 86 0.0 0.0 0.00 0.00 0.00 59 1014.7
20260906192914 86 0.0 0.0 0.00 0.00 0.00 59 1014.4
20260906192414 85 0.0 0.0 0.00 0.00 0.00 60 1014.3
20260906191913 85 0.0 0.0 0.00 0.00 0.00 62 1014.7
20260906191408 85 0.0 0.0 0.00 0.00 0.00 61 1014.6
20260906190902 86 0.0 0.0 0.00 0.00 0.00 63 1014.5
20260906190401 86 0.0 0.0 0.00 0.00 0.00 63 1014.7
20260906185856 85 0.0 0.0 0.00 0.00 0.00 64 1014.7
20260906185355 85 0.0 0.0 0.00 0.00 0.00 64 1015.0
20260906184855 85 0.0 0.0 0.00 0.00 0.00 64 1014.8
20260906184350 84 0.0 0.0 0.00 0.00 0.00 65 1014.9
20260906183845 84 0.0 0.0 0.00 0.00 0.00 66 1014.9
20260906183341 84 0.0 0.0 0.00 0.00 0.00 67 1014.8
20260906182836 83 0.0 0.0 0.00 0.00 0.00 68 1015.0
20260906182331 83 0.0 0.0 0.00 0.00 0.00 69 1014.9
20260906181826 83 0.0 0.0 0.00 0.00 0.00 68 1014.8
20260906181323 83 0.0 0.0 0.00 0.00 0.00 70 1015.0
20260906180818 82 0.0 0.0 0.00 0.00 0.00 70 1014.8
20260906180312 82 0.0 0.0 0.00 0.00 0.00 71 1014.8
20260906175809 82 0.0 0.0 0.00 0.00 0.00 71 1015.2
20260906175306 82 0.0 0.0 0.00 0.00 0.00 72 1015.1
20260906174804 82 0.0 0.0 0.00 0.00 0.00 74 1014.9
20260906174304 81 0.0 0.0 0.00 0.00 0.00 74 1015.0
20260906173759 81 0.0 0.0 0.00 0.00 0.00 74 1015.0
20260906173255 81 0.0 0.0 0.00 0.00 0.00 75 1015.1
20260906172753 81 0.0 0.0 0.00 0.00 0.00 75 1015.1
20260906172249 81 0.0 0.0 0.00 0.00 0.00 75 1015.0
20260906171744 81 0.0 0.0 0.00 0.00 0.00 76 1015.4
20260906171239 80 0.0 0.0 0.00 0.00 0.00 77 1015.6
20260906170735 80 0.0 0.0 0.00 0.00 0.00 77 1015.2
20260906170230 80 0.0 0.0 0.00 0.00 0.00 76 1015.7
20260906165721 80 0.0 0.0 0.00 0.00 0.00 76 1015.6
20260906165220 80 0.0 0.0 0.00 0.00 0.00 77 1015.8
20260906164715 80 0.0 0.0 0.00 0.00 0.00 76 1015.8
20260906164210 80 0.0 0.0 0.00 0.00 0.00 77 1015.7
20260906163706 80 0.0 0.0 0.00 0.00 0.00 76 1015.9
20260906163202 80 0.0 0.0 0.00 0.00 0.00 77 1015.9
20260906162659 80 0.0 0.0 0.00 0.00 0.00 78 1015.8
20260906162158 80 0.0 0.0 0.00 0.00 0.00 78 1015.7
20260906161653 79 0.0 0.0 0.00 0.00 0.00 78 1015.7
20260906161152 79 0.0 0.0 0.00 0.00 0.00 78 1015.7
20260906160651 79 0.0 0.0 0.00 0.00 0.00 78 1015.7
20260906160151 79 0.0 0.0 0.00 0.00 0.00 78 1015.8
20260906155648 79 0.0 0.0 0.00 0.00 0.00 79 1015.7
20260906155144 79 0.0 0.0 0.00 0.00 0.00 79 1015.6
20260906154639 79 0.0 0.0 0.00 0.00 0.00 80 1015.7
20260906154139 79 0.0 0.0 0.00 0.00 0.00 79 1015.7
20260906153638 78 0.0 0.0 0.00 0.00 0.00 80 1015.8
20260906153133 78 0.0 0.0 0.00 0.00 0.00 79 1015.8
20260906152627 78 0.0 0.0 0.00 0.00 0.00 79 1015.7
20260906152121 78 0.0 0.0 0.00 0.00 0.00 79 1015.6
20260906151616 78 0.0 0.0 0.00 0.00 0.00 81 1015.4
20260906151112 78 0.0 0.0 0.00 0.00 0.00 80 1015.4
20260906150607 78 0.0 0.0 0.00 0.00 0.00 80 1015.5
20260906145601 77 0.0 0.0 0.00 0.00 0.00 81 1015.5
20260906145055 77 0.0 0.0 0.00 0.00 0.00 81 1015.4
20260906144550 77 0.0 0.0 0.00 0.00 0.00 81 1015.5
20260906144046 77 0.0 0.0 0.00 0.00 0.00 81 1015.5
20260906143540 77 0.0 0.0 0.00 0.00 0.00 82 1015.8
20260906143038 77 0.0 0.0 0.00 0.00 0.00 81 1015.6
20260906142537 77 0.0 0.0 0.00 0.00 0.00 82 1015.6
20260906142032 77 0.0 0.0 0.00 0.00 0.00 82 1015.6
20260906141531 77 0.0 0.0 0.00 0.00 0.00 83 1015.7
20260906141027 77 0.0 0.0 0.00 0.00 0.00 82 1015.8
20260906140520 77 0.0 0.0 0.00 0.00 0.00 83 1015.6
20260906140020 76 0.0 0.0 0.00 0.00 0.00 83 1015.1
20260906135517 76 0.0 0.0 0.00 0.00 0.00 83 1015.2
20260906135013 76 0.0 0.0 0.00 0.00 0.00 83 1015.1
20260906134508 76 0.0 0.0 0.00 0.00 0.00 83 1015.4
20260906134008 76 0.0 0.0 0.00 0.00 0.00 83 1015.2
20260906133504 76 0.0 0.0 0.00 0.00 0.00 84 1015.4
20260906133000 76 0.0 0.0 0.00 0.00 0.00 83 1015.1
20260906132454 76 0.0 0.0 0.00 0.00 0.00 84 1015.1
20260906131949 76 0.0 0.0 0.00 0.00 0.00 83 1015.0
20260906131445 76 0.0 0.0 0.00 0.00 0.00 84 1015.0
20260906130941 76 0.0 0.0 0.00 0.00 0.00 84 1015.0
20260906130440 76 0.0 0.0 0.00 0.00 0.00 84 1014.9
20260906125934 76 0.0 0.0 0.00 0.00 0.00 85 1014.9
20260906125431 76 0.0 0.0 0.00 0.00 0.00 85 1014.8
20260906124926 76 0.0 0.0 0.00 0.00 0.00 85 1015.0
20260906124422 76 0.0 0.0 0.00 0.00 0.00 85 1014.8
20260906123921 75 0.0 0.0 0.00 0.00 0.00 85 1014.6
20260906123416 75 0.0 0.0 0.00 0.00 0.00 85 1014.9
20260906122916 75 0.0 0.0 0.00 0.00 0.00 85 1014.7
20260906122410 75 0.0 0.0 0.00 0.00 0.00 85 1014.8
20260906121908 75 0.0 0.0 0.00 0.00 0.00 85 1014.5
20260906121403 75 0.0 0.0 0.00 0.00 0.00 86 1014.5
20260906120859 75 0.0 0.0 0.00 0.00 0.00 86 1014.4
20260906120355 75 0.0 0.0 0.00 0.00 0.00 86 1014.3
20260906115851 75 0.0 0.0 0.00 0.00 0.00 86 1014.1
20260906115346 75 0.0 0.0 0.00 0.00 0.00 86 1014.1
20260906114845 75 0.0 0.0 0.00 0.00 0.00 85 1014.1
20260906114340 75 0.0 0.0 0.00 0.00 0.00 85 1013.9
20260906113835 76 0.0 0.0 0.00 0.00 0.00 85 1013.7
20260906113334 76 0.0 0.0 0.00 0.00 0.00 85 1013.8
20260906112829 76 0.0 0.0 0.00 0.00 0.00 85 1013.8
20260906112326 76 0.0 0.0 0.00 0.00 0.00 85 1013.7
20260906111825 76 0.0 0.0 0.00 0.00 0.00 85 1013.5
20260906111320 76 0.0 0.0 0.00 0.00 0.00 85 1013.7
20260906110815 76 0.0 0.0 0.00 0.00 0.00 85 1013.8
20260906110311 76 0.0 0.0 0.00 0.00 0.00 85 1013.6
20260906105810 76 0.0 0.0 0.00 0.00 0.00 85 1013.5
20260906105306 76 0.0 0.0 0.00 0.00 0.00 85 1013.5
20260906104801 76 0.0 0.0 0.00 0.00 0.00 85 1013.7
20260906104300 76 0.0 0.0 0.00 0.00 0.00 85 1013.4
20260906103758 77 0.0 0.0 0.00 0.00 0.00 85 1013.2
20260906103257 77 0.0 0.0 0.00 0.00 0.00 85 1013.2
20260906102754 77 0.0 0.0 0.00 0.00 0.00 85 1013.0
20260906102252 77 0.0 0.0 0.00 0.00 0.00 85 1013.2
20260906101748 77 0.0 0.0 0.00 0.00 0.00 84 1013.0
20260906101242 77 0.0 0.0 0.00 0.00 0.00 84 1013.1
20260906100738 77 0.0 0.0 0.00 0.00 0.00 84 1013.0
20260906100237 77 0.0 0.0 0.00 0.00 0.00 84 1012.8
20260906095733 77 0.0 0.0 0.00 0.00 0.00 84 1012.9
20260906095228 77 0.0 0.0 0.00 0.00 0.00 84 1012.9
20260906094727 77 0.0 0.0 0.00 0.00 0.00 85 1013.0
20260906094222 77 0.0 0.0 0.00 0.00 0.00 84 1012.7
20260906093718 77 0.0 0.0 0.00 0.00 0.00 84 1013.0
20260906093214 77 0.0 0.0 0.00 0.00 0.00 84 1012.9
20260906092709 77 0.0 0.0 0.00 0.00 0.00 83 1013.2
20260906092208 77 0.0 0.0 0.00 0.00 0.00 83 1012.9
20260906091705 77 0.0 0.0 0.00 0.00 0.00 82 1012.6
20260906091201 77 0.0 0.0 0.00 0.00 0.00 82 1012.9
20260906090657 77 0.0 0.0 0.00 0.00 0.00 82 1012.6
20260906090155 77 0.0 0.0 0.00 0.00 0.00 82 1012.7
20260906085655 77 0.0 0.0 0.00 0.00 0.00 82 1012.7
20260906085149 77 0.0 0.0 0.00 0.00 0.00 82 1012.6
20260906084644 77 0.0 0.0 0.00 0.00 0.00 82 1012.7
20260906084143 77 0.0 0.0 0.00 0.00 0.00 82 1012.6
20260906083638 77 0.0 0.0 0.00 0.00 0.00 82 1012.7
20260906083133 77 0.0 0.0 0.00 0.00 0.00 82 1012.8
20260906082629 77 0.0 0.0 0.00 0.00 0.00 82 1012.7
20260906082124 76 0.0 0.0 0.00 0.00 0.00 82 1012.6
20260906081620 77 0.0 0.0 0.00 0.00 0.00 82 1012.7
20260906081115 76 0.0 0.0 0.00 0.00 0.00 83 1012.6
20260906080611 76 0.0 0.0 0.00 0.00 0.00 82 1012.5
20260906080107 76 0.0 0.0 0.00 0.00 0.00 82 1012.5
20260906075601 77 0.0 0.0 0.00 0.00 0.00 82 1012.6
20260906075056 77 0.0 0.0 0.00 0.00 0.00 81 1012.5
20260906074551 77 0.0 0.0 0.00 0.00 0.00 81 1012.6
20260906074049 77 0.0 0.0 0.00 0.00 0.00 81 1012.6
20260906073544 77 0.0 0.0 0.00 0.00 0.00 80 1012.6
20260906073040 77 0.0 0.0 0.00 0.00 0.00 79 1012.5
20260906072535 77 0.0 0.0 0.00 0.00 0.00 79 1012.5
20260906072031 77 0.0 0.0 0.00 0.00 0.00 79 1012.1
20260906071527 77 0.0 0.0 0.00 0.00 0.00 79 1012.5
20260906071022 78 0.0 0.0 0.00 0.00 0.00 79 1012.5
20260906070519 78 0.0 0.0 0.00 0.00 0.00 79 1012.7
20260906070014 78 0.0 0.0 0.00 0.00 0.00 79 1012.7
20260906065513 78 0.0 0.0 0.00 0.00 0.00 78 1012.5
20260906065009 78 0.0 0.0 0.00 0.00 0.00 78 1012.9
20260906064505 78 0.0 0.0 0.00 0.00 0.00 78 1012.8
20260906064000 78 0.0 0.0 0.00 0.00 0.00 78 1012.9
20260906063455 79 0.0 0.0 0.00 0.00 0.00 78 1012.8
20260906062949 79 0.0 0.0 0.00 0.00 0.00 80 1012.8
20260906062444 79 0.0 0.0 0.00 0.00 0.00 78 1012.7
20260906061939 79 0.0 0.0 0.00 0.00 0.00 78 1013.1
20260906061430 79 0.0 0.0 0.00 0.00 0.00 78 1013.1
20260906060930 79 0.0 0.0 0.00 0.00 0.00 79 1013.0
20260906060427 79 0.0 0.0 0.00 0.00 0.00 79 1013.2
20260906055923 79 0.0 0.0 0.00 0.00 0.00 79 1013.0
20260906055419 79 0.0 0.0 0.00 0.00 0.00 79 1013.0
20260906054914 79 0.0 0.0 0.00 0.00 0.00 76 1012.9
20260906054409 79 0.0 0.0 0.00 0.00 0.00 76 1012.9
20260906053905 79 0.0 0.0 0.00 0.00 0.00 76 1013.0
20260906053400 79 0.0 0.0 0.00 0.00 0.00 76 1013.0
20260906052856 79 0.0 0.0 0.00 0.00 0.00 76 1013.0
20260906052352 80 0.0 0.0 0.00 0.00 0.00 76 1013.0
20260906051849 80 0.0 0.0 0.00 0.00 0.00 76 1013.1
20260906051348 80 0.0 0.0 0.00 0.00 0.00 76 1013.1
20260906050844 80 0.0 0.0 0.00 0.00 0.00 76 1013.1
20260906050339 80 0.0 0.0 0.00 0.00 0.00 76 1013.1
20260906045838 80 0.0 0.0 0.00 0.04 0.04 76 1013.1
20260906045332 80 0.0 0.0 0.00 0.04 0.04 77 1013.1
20260906044828 80 0.0 0.0 0.00 0.04 0.04 77 1013.2
20260906044323 80 0.0 0.0 0.00 0.04 0.04 77 1013.3
20260906043819 80 0.0 0.0 0.00 0.04 0.04 77 1013.1
20260906043315 80 0.0 0.0 0.00 0.04 0.04 77 1013.0
20260906042814 80 0.0 0.0 0.00 0.04 0.04 76 1012.8
20260906042314 80 0.0 0.0 0.00 0.04 0.04 76 1012.7
20260906041809 81 0.0 0.0 0.00 0.04 0.04 74 1012.5
20260906041304 81 0.0 0.0 0.00 0.04 0.04 74 1012.6
20260906040759 81 0.0 0.0 0.00 0.04 0.04 74 1012.5
20260906040255 81 0.0 0.0 0.00 0.04 0.04 74 1012.6
20260906035750 81 0.0 0.0 0.00 0.04 0.04 74 1012.5
20260906035246 81 0.0 0.0 0.00 0.04 0.04 74 1012.6
20260906034746 81 0.0 0.0 0.00 0.04 0.04 73 1012.7
20260906034241 81 0.0 0.0 0.00 0.04 0.04 73 1012.6
20260906033737 82 0.0 0.0 0.00 0.04 0.04 73 1012.3
20260906033236 82 0.0 0.0 0.00 0.04 0.04 73 1012.5
20260906032733 82 0.0 0.0 0.00 0.04 0.04 73 1012.6
20260906032232 82 0.0 0.0 0.00 0.04 0.04 73 1012.6
20260906031728 82 0.0 0.0 0.00 0.04 0.04 72 1012.5
20260906031224 82 0.0 0.0 0.00 0.04 0.04 72 1012.4
20260906030723 82 0.0 0.0 0.00 0.04 0.04 71 1012.4
20260906030218 82 0.0 0.0 0.00 0.04 0.04 70 1012.3
20260906025717 83 0.0 0.0 0.00 0.04 0.04 71 1012.3
20260906025212 83 0.0 0.0 0.00 0.04 0.04 71 1012.1
20260906024711 83 0.0 0.0 0.00 0.04 0.04 71 1012.1
20260906024210 83 0.0 0.0 0.00 0.04 0.04 71 1011.9
20260906023706 83 0.0 0.0 0.00 0.04 0.04 71 1011.8
20260906023201 83 0.0 0.0 0.00 0.04 0.04 71 1011.9
20260906022656 83 0.0 0.0 0.00 0.04 0.04 71 1011.8
20260906022152 84 0.0 0.0 0.00 0.04 0.04 70 1011.6
20260906021648 84 0.0 0.0 0.00 0.04 0.04 71 1011.5
20260906021146 84 0.0 0.0 0.00 0.04 0.04 71 1011.4
20260906020641 84 0.0 0.0 0.00 0.04 0.04 72 1011.7
20260906020136 84 0.0 0.0 0.00 0.04 0.04 72 1011.5
20260906015630 84 0.0 0.0 0.00 0.04 0.04 71 1011.5
20260906015128 84 0.0 0.0 0.00 0.04 0.04 72 1011.5
20260906014623 84 0.0 0.0 0.00 0.04 0.04 71 1011.4
20260906014119 85 0.0 0.0 0.00 0.04 0.04 71 1011.6
20260906013614 85 0.0 0.0 0.00 0.04 0.04 71 1011.5
20260906013110 85 0.0 0.0 0.00 0.04 0.04 70 1011.5
20260906012605 85 0.0 0.0 0.00 0.04 0.04 71 1011.5
20260906012059 85 0.0 0.0 0.00 0.04 0.04 71 1011.5
20260906011555 86 0.0 0.0 0.00 0.04 0.04 72 1011.4
20260906011055 86 0.0 0.0 0.00 0.04 0.04 70 1011.3
20260906010550 86 0.0 0.0 0.00 0.04 0.04 70 1011.2
20260906010047 86 0.0 0.0 0.00 0.04 0.04 69 1011.3
20260906005546 86 0.0 0.0 0.00 0.04 0.04 67 1011.2
20260906005045 87 0.0 0.0 0.00 0.04 0.04 67 1011.2
20260906004545 87 0.0 0.0 0.00 0.04 0.04 66 1011.2
20260906004039 87 0.0 0.0 0.00 0.04 0.04 67 1011.1
20260906003534 87 0.0 0.0 0.00 0.04 0.04 65 1010.9
20260906003031 87 0.0 0.0 0.00 0.04 0.04 65 1010.8
20260906002525 88 0.0 0.0 0.00 0.04 0.04 63 1010.9
20260906002020 88 0.0 0.0 0.00 0.04 0.04 64 1010.8
20260906001515 89 0.0 0.0 0.00 0.04 0.04 62 1011.1
20260906001004 90 0.0 0.0 0.00 0.04 0.04 62 1011.0
20260906000500 90 0.0 0.0 0.00 0.04 0.04 62 1011.2
20260905235959 90 0.0 0.0 0.00 0.04 0.04 60 1011.1
20260905235454 90 0.0 0.0 0.00 0.04 0.04 57 1011.4
20260905234949 90 0.0 0.0 0.00 0.04 0.04 57 1011.1
20260905234444 90 0.0 0.0 0.00 0.04 0.04 57 1011.4
20260905233938 90 0.0 0.0 0.00 0.04 0.04 57 1011.4
20260905233434 90 0.0 0.0 0.00 0.04 0.04 58 1011.4
20260905232933 90 0.0 0.0 0.00 0.04 0.04 59 1011.3
20260905232429 90 0.0 0.0 0.00 0.04 0.04 59 1011.3
20260905231924 89 0.0 0.0 0.00 0.04 0.04 60 1011.3
20260905231420 90 0.0 0.0 0.00 0.04 0.04 63 1011.0
20260905230917 90 0.0 0.0 0.00 0.04 0.04 64 1011.1
20260905230415 89 0.0 0.0 0.00 0.04 0.04 61 1011.0
20260905225914 89 0.0 0.0 0.00 0.04 0.04 65 1010.8
20260905225409 89 0.0 0.0 0.00 0.04 0.04 61 1011.3
20260905224904 88 0.0 0.0 0.00 0.04 0.04 62 1010.7
20260905224400 87 0.0 0.0 0.00 0.04 0.04 63 1011.0
20260905223854 86 0.0 0.0 0.00 0.04 0.04 65 1010.9
20260905223351 86 0.0 0.0 0.00 0.04 0.04 66 1010.9
20260905222846 86 0.0 0.0 0.00 0.04 0.04 66 1010.7
20260905222345 87 0.0 0.0 0.00 0.04 0.04 65 1010.8
20260905221841 87 0.0 0.0 0.00 0.04 0.04 60 1011.0
20260905221337 89 0.0 0.0 0.00 0.04 0.04 58 1010.9
20260905220833 90 0.0 0.0 0.00 0.04 0.04 56 1010.8
20260905220329 92 0.0 0.0 0.19 0.04 0.04 55 1010.8
20260905215828 95 0.0 0.0 0.24 0.04 0.04 49 1010.7
20260905215324 97 0.0 0.0 0.05 0.01 0.01 44 1010.9
20260905214821 98 0.0 0.0 0.00 0.00 0.00 41 1010.8
20260905214315 98 0.0 0.0 0.00 0.00 0.00 39 1010.6
20260905213810 98 0.0 0.0 0.00 0.00 0.00 40 1010.5
20260905213306 99 0.0 0.0 0.00 0.00 0.00 41 1010.7
20260905212801 99 0.0 0.0 0.00 0.00 0.00 41 1010.6
20260905212301 99 0.0 0.0 0.00 0.00 0.00 39 1010.6
20260905211755 99 0.0 0.0 0.00 0.00 0.00 40 1010.7
20260905211250 99 0.0 0.0 0.00 0.00 0.00 39 1010.6
20260905210747 99 0.0 0.0 0.00 0.00 0.00 40 1010.7
20260905210247 99 0.0 0.0 0.00 0.00 0.00 40 1010.8